Year,Month,Day,Hour,Minute,Value (Times are PST for temperature in C)
2018,02,21,00,00,-4.00
2018,02,21,00,01,-4.00
2018,02,21,00,02,-4.00
2018,02,21,00,03,-4.00
2018,02,21,00,04,-3.90
2018,02,21,00,05,-3.90
2018,02,21,00,06,-3.90
2018,02,21,00,07,-4.00
2018,02,21,00,08,-4.00
2018,02,21,00,09,-4.20
2018,02,21,00,10,-4.30
2018,02,21,00,11,-4.40
2018,02,21,00,12,-4.40
2018,02,21,00,13,-4.40
2018,02,21,00,14,-4.50
2018,02,21,00,15,-4.60
2018,02,21,00,16,-4.60
2018,02,21,00,17,-4.70
2018,02,21,00,18,-4.80
2018,02,21,00,19,-4.90
2018,02,21,00,20,-4.90
2018,02,21,00,21,-5.00
2018,02,21,00,22,-5.00
2018,02,21,00,23,-5.00
2018,02,21,00,24,-4.90
2018,02,21,00,25,-4.80
2018,02,21,00,26,-4.80
2018,02,21,00,27,-4.70
2018,02,21,00,28,-4.70
2018,02,21,00,29,-4.80
2018,02,21,00,30,-4.80
2018,02,21,00,31,-4.80
2018,02,21,00,32,-4.70
2018,02,21,00,33,-4.70
2018,02,21,00,34,-4.70
2018,02,21,00,35,-4.70
2018,02,21,00,36,-4.70
2018,02,21,00,37,-4.70
2018,02,21,00,38,-4.70
2018,02,21,00,39,-4.70
2018,02,21,00,40,-4.80
2018,02,21,00,41,-4.80
2018,02,21,00,42,-4.80
2018,02,21,00,43,-4.80
2018,02,21,00,44,-4.70
2018,02,21,00,45,-4.70
2018,02,21,00,46,-4.70
2018,02,21,00,47,-4.70
2018,02,21,00,48,-4.70
2018,02,21,00,49,-4.80
2018,02,21,00,50,-4.80
2018,02,21,00,51,-4.70
2018,02,21,00,52,-4.70
2018,02,21,00,53,-4.60
2018,02,21,00,54,-4.50
2018,02,21,00,55,-4.50
2018,02,21,00,56,-4.60
2018,02,21,00,57,-4.60
2018,02,21,00,58,-4.60
2018,02,21,00,59,-4.60
2018,02,21,01,00,-4.60
2018,02,21,01,01,-4.50
2018,02,21,01,02,-4.50
2018,02,21,01,03,-4.40
2018,02,21,01,04,-4.30
2018,02,21,01,05,-4.30
2018,02,21,01,06,-4.30
2018,02,21,01,07,-4.20
2018,02,21,01,08,-4.20
2018,02,21,01,09,-4.20
2018,02,21,01,10,-4.30
2018,02,21,01,11,-4.30
2018,02,21,01,12,-4.30
2018,02,21,01,13,-4.40
2018,02,21,01,14,-4.50
2018,02,21,01,15,-4.50
2018,02,21,01,16,-4.60
2018,02,21,01,17,-4.60
2018,02,21,01,18,-4.60
2018,02,21,01,19,-4.60
2018,02,21,01,20,-4.60
2018,02,21,01,21,-4.50
2018,02,21,01,22,-4.40
2018,02,21,01,23,-4.40
2018,02,21,01,24,-4.30
2018,02,21,01,25,-4.30
2018,02,21,01,26,-4.30
2018,02,21,01,27,-4.30
2018,02,21,01,28,-4.30
2018,02,21,01,29,-4.30
2018,02,21,01,30,-4.30
2018,02,21,01,31,-4.30
2018,02,21,01,32,-4.30
2018,02,21,01,33,-4.20
2018,02,21,01,34,-4.20
2018,02,21,01,35,-4.20
2018,02,21,01,36,-4.20
2018,02,21,01,37,-4.30
2018,02,21,01,38,-4.30
2018,02,21,01,39,-4.40
2018,02,21,01,40,-4.50
2018,02,21,01,41,-4.50
2018,02,21,01,42,-4.60
2018,02,21,01,43,-4.70
2018,02,21,01,44,-4.70
2018,02,21,01,45,-4.80
2018,02,21,01,46,-4.80
2018,02,21,01,47,-4.80
2018,02,21,01,48,-4.90
2018,02,21,01,49,-5.00
2018,02,21,01,50,-5.00
2018,02,21,01,51,-5.10
2018,02,21,01,52,-5.10
2018,02,21,01,53,-5.10
2018,02,21,01,54,-5.10
2018,02,21,01,55,-5.00
2018,02,21,01,56,-4.90
2018,02,21,01,57,-4.80
2018,02,21,01,58,-4.70
2018,02,21,01,59,-4.50
2018,02,21,02,00,-4.40
2018,02,21,02,01,-4.30
2018,02,21,02,02,-4.20
2018,02,21,02,03,-4.10
2018,02,21,02,04,-4.10
2018,02,21,02,05,-4.10
2018,02,21,02,06,-4.10
2018,02,21,02,07,-4.20
2018,02,21,02,08,-4.20
2018,02,21,02,09,-4.20
2018,02,21,02,10,-4.30
2018,02,21,02,11,-4.40
2018,02,21,02,12,-4.40
2018,02,21,02,13,-4.50
2018,02,21,02,14,-4.60
2018,02,21,02,15,-4.60
2018,02,21,02,16,-4.60
2018,02,21,02,17,-4.60
2018,02,21,02,18,-4.60
2018,02,21,02,19,-4.60
2018,02,21,02,20,-4.70
2018,02,21,02,21,-4.70
2018,02,21,02,22,-4.80
2018,02,21,02,23,-4.80
2018,02,21,02,24,-4.90
2018,02,21,02,25,-4.90
2018,02,21,02,26,-5.00
2018,02,21,02,27,-5.10
2018,02,21,02,28,-5.20
2018,02,21,02,29,-5.20
2018,02,21,02,30,-5.30
2018,02,21,02,31,-5.40
2018,02,21,02,32,-5.50
2018,02,21,02,33,-5.50
2018,02,21,02,34,-5.40
2018,02,21,02,35,-5.30
2018,02,21,02,36,-5.30
2018,02,21,02,37,-5.20
2018,02,21,02,38,-5.00
2018,02,21,02,39,-4.90
2018,02,21,02,40,-4.80
2018,02,21,02,41,-4.70
2018,02,21,02,42,-4.70
2018,02,21,02,43,-4.60
2018,02,21,02,44,-4.60
2018,02,21,02,45,-4.50
2018,02,21,02,46,-4.40
2018,02,21,02,47,-4.40
2018,02,21,02,48,-4.30
2018,02,21,02,49,-4.30
2018,02,21,02,50,-4.30
2018,02,21,02,51,-4.20
2018,02,21,02,52,-4.30
2018,02,21,02,53,-4.30
2018,02,21,02,54,-4.30
2018,02,21,02,55,-4.30
2018,02,21,02,56,-4.40
2018,02,21,02,57,-4.40
2018,02,21,02,58,-4.50
2018,02,21,02,59,-4.50
2018,02,21,03,00,-4.60
2018,02,21,03,01,-4.60
2018,02,21,03,02,-4.60
2018,02,21,03,03,-4.60
2018,02,21,03,04,-4.60
2018,02,21,03,05,-4.60
2018,02,21,03,06,-4.60
2018,02,21,03,07,-4.60
2018,02,21,03,08,-4.60
2018,02,21,03,09,-4.60
2018,02,21,03,10,-4.60
2018,02,21,03,11,-4.60
2018,02,21,03,12,-4.50
2018,02,21,03,13,-4.50
2018,02,21,03,14,-4.40
2018,02,21,03,15,-4.40
2018,02,21,03,16,-4.30
2018,02,21,03,17,-4.30
2018,02,21,03,18,-4.30
2018,02,21,03,19,-4.30
2018,02,21,03,20,-4.30
2018,02,21,03,21,-4.30
2018,02,21,03,22,-4.30
2018,02,21,03,23,-4.30
2018,02,21,03,24,-4.30
2018,02,21,03,25,-4.30
2018,02,21,03,26,-4.30
2018,02,21,03,27,-4.30
2018,02,21,03,28,-4.40
2018,02,21,03,29,-4.40
2018,02,21,03,30,-4.40
2018,02,21,03,31,-4.40
2018,02,21,03,32,-4.40
2018,02,21,03,33,-4.40
2018,02,21,03,34,-4.40
2018,02,21,03,35,-4.40
2018,02,21,03,36,-4.40
2018,02,21,03,37,-4.40
2018,02,21,03,38,-4.40
2018,02,21,03,39,-4.40
2018,02,21,03,40,-4.30
2018,02,21,03,41,-4.30
2018,02,21,03,42,-4.30
2018,02,21,03,43,-4.30
2018,02,21,03,44,-4.30
2018,02,21,03,45,-4.30
2018,02,21,03,46,-4.30
2018,02,21,03,47,-4.30
2018,02,21,03,48,-4.30
2018,02,21,03,49,-4.30
2018,02,21,03,50,-4.30
2018,02,21,03,51,-4.30
2018,02,21,03,52,-4.30
2018,02,21,03,53,-4.30
2018,02,21,03,54,-4.30
2018,02,21,03,55,-4.30
2018,02,21,03,56,-4.30
2018,02,21,03,57,-4.30
2018,02,21,03,58,-4.30
2018,02,21,03,59,-4.30
2018,02,21,04,00,-4.30
2018,02,21,04,01,-4.30
2018,02,21,04,02,-4.30
2018,02,21,04,03,-4.30
2018,02,21,04,04,-4.30
2018,02,21,04,05,-4.30
2018,02,21,04,06,-4.20
2018,02,21,04,07,-4.20
2018,02,21,04,08,-4.10
2018,02,21,04,09,-4.10
2018,02,21,04,10,-4.10
2018,02,21,04,11,-4.00
2018,02,21,04,12,-4.00
2018,02,21,04,13,-4.00
2018,02,21,04,14,-4.00
2018,02,21,04,15,-4.10
2018,02,21,04,16,-4.10
2018,02,21,04,17,-4.10
2018,02,21,04,18,-4.10
2018,02,21,04,19,-4.10
2018,02,21,04,20,-4.10
2018,02,21,04,21,-4.10
2018,02,21,04,22,-4.10
2018,02,21,04,23,-4.00
2018,02,21,04,24,-4.00
2018,02,21,04,25,-4.00
2018,02,21,04,26,-3.90
2018,02,21,04,27,-3.90
2018,02,21,04,28,-3.90
2018,02,21,04,29,-3.90
2018,02,21,04,30,-3.90
2018,02,21,04,31,-3.90
2018,02,21,04,32,-3.80
2018,02,21,04,33,-3.80
2018,02,21,04,34,-3.80
2018,02,21,04,35,-3.80
2018,02,21,04,36,-3.80
2018,02,21,04,37,-3.80
2018,02,21,04,38,-3.80
2018,02,21,04,39,-3.80
2018,02,21,04,40,-3.80
2018,02,21,04,41,-3.80
2018,02,21,04,42,-3.90
2018,02,21,04,43,-3.90
2018,02,21,04,44,-3.90
2018,02,21,04,45,-3.90
2018,02,21,04,46,-3.80
2018,02,21,04,47,-3.80
2018,02,21,04,48,-3.80
2018,02,21,04,49,-3.80
2018,02,21,04,50,-3.80
2018,02,21,04,51,-3.80
2018,02,21,04,52,-3.80
2018,02,21,04,53,-3.80
2018,02,21,04,54,-3.80
2018,02,21,04,55,-3.70
2018,02,21,04,56,-3.70
2018,02,21,04,57,-3.70
2018,02,21,04,58,-3.70
2018,02,21,04,59,-3.70
2018,02,21,05,00,-3.80
2018,02,21,05,01,-3.80
2018,02,21,05,02,-3.80
2018,02,21,05,03,-3.80
2018,02,21,05,04,-3.80
2018,02,21,05,05,-3.80
2018,02,21,05,06,-3.80
2018,02,21,05,07,-3.90
2018,02,21,05,08,-3.90
2018,02,21,05,09,-3.90
2018,02,21,05,10,-3.90
2018,02,21,05,11,-3.80
2018,02,21,05,12,-3.80
2018,02,21,05,13,-3.80
2018,02,21,05,14,-3.80
2018,02,21,05,15,-3.80
2018,02,21,05,16,-3.80
2018,02,21,05,17,-3.80
2018,02,21,05,18,-3.80
2018,02,21,05,19,-3.90
2018,02,21,05,20,-3.90
2018,02,21,05,21,-3.90
2018,02,21,05,22,-3.90
2018,02,21,05,23,-4.00
2018,02,21,05,24,-4.10
2018,02,21,05,25,-4.10
2018,02,21,05,26,-4.10
2018,02,21,05,27,-4.20
2018,02,21,05,28,-4.20
2018,02,21,05,29,-4.30
2018,02,21,05,30,-4.30
2018,02,21,05,31,-4.30
2018,02,21,05,32,-4.30
2018,02,21,05,33,-4.30
2018,02,21,05,34,-4.30
2018,02,21,05,35,-4.30
2018,02,21,05,36,-4.30
2018,02,21,05,37,-4.30
2018,02,21,05,38,-4.30
2018,02,21,05,39,-4.30
2018,02,21,05,40,-4.30
2018,02,21,05,41,-4.30
2018,02,21,05,42,-4.30
2018,02,21,05,43,-4.30
2018,02,21,05,44,-4.30
2018,02,21,05,45,-4.30
2018,02,21,05,46,-4.30
2018,02,21,05,47,-4.30
2018,02,21,05,48,-4.30
2018,02,21,05,49,-4.30
2018,02,21,05,50,-4.30
2018,02,21,05,51,-4.30
2018,02,21,05,52,-4.30
2018,02,21,05,53,-4.40
2018,02,21,05,54,-4.40
2018,02,21,05,55,-4.40
2018,02,21,05,56,-4.30
2018,02,21,05,57,-4.30
2018,02,21,05,58,-4.30
2018,02,21,05,59,-4.30
2018,02,21,06,00,-4.30
2018,02,21,06,01,-4.30
2018,02,21,06,02,-4.30
2018,02,21,06,03,-4.20
2018,02,21,06,04,-4.20
2018,02,21,06,05,-4.20
2018,02,21,06,06,-4.20
2018,02,21,06,07,-4.20
2018,02,21,06,08,-4.20
2018,02,21,06,09,-4.20
2018,02,21,06,10,-4.20
2018,02,21,06,11,-4.20
2018,02,21,06,12,-4.20
2018,02,21,06,13,-4.20
2018,02,21,06,14,-4.20
2018,02,21,06,15,-4.20
2018,02,21,06,16,-4.10
2018,02,21,06,17,-4.10
2018,02,21,06,18,-4.10
2018,02,21,06,19,-4.10
2018,02,21,06,20,-4.10
2018,02,21,06,21,-4.10
2018,02,21,06,22,-4.10
2018,02,21,06,23,-4.10
2018,02,21,06,24,-4.10
2018,02,21,06,25,-4.10
2018,02,21,06,26,-4.20
2018,02,21,06,27,-4.20
2018,02,21,06,28,-4.20
2018,02,21,06,29,-4.20
2018,02,21,06,30,-4.20
2018,02,21,06,31,-4.30
2018,02,21,06,32,-4.30
2018,02,21,06,33,-4.30
2018,02,21,06,34,-4.30
2018,02,21,06,35,-4.30
2018,02,21,06,36,-4.30
2018,02,21,06,37,-4.30
2018,02,21,06,38,-4.30
2018,02,21,06,39,-4.30
2018,02,21,06,40,-4.30
2018,02,21,06,41,-4.30
2018,02,21,06,42,-4.30
2018,02,21,06,43,-4.30
2018,02,21,06,44,-4.20
2018,02,21,06,45,-4.20
2018,02,21,06,46,-4.20
2018,02,21,06,47,-4.20
2018,02,21,06,48,-4.20
2018,02,21,06,49,-4.20
2018,02,21,06,50,-4.20
2018,02,21,06,51,-4.20
2018,02,21,06,52,-4.30
2018,02,21,06,53,-4.30
2018,02,21,06,54,-4.30
2018,02,21,06,55,-4.20
2018,02,21,06,56,-4.20
2018,02,21,06,57,-4.20
2018,02,21,06,58,-4.20
2018,02,21,06,59,-4.10
2018,02,21,07,00,-4.10
2018,02,21,07,01,-4.00
2018,02,21,07,02,-4.00
2018,02,21,07,03,-4.00
2018,02,21,07,04,-3.90
2018,02,21,07,05,-3.80
2018,02,21,07,06,-3.80
2018,02,21,07,07,-3.70
2018,02,21,07,08,-3.70
2018,02,21,07,09,-3.60
2018,02,21,07,10,-3.60
2018,02,21,07,11,-3.50
2018,02,21,07,12,-3.50
2018,02,21,07,13,-3.50
2018,02,21,07,14,-3.50
2018,02,21,07,15,-3.50
2018,02,21,07,16,-3.50
2018,02,21,07,17,-3.50
2018,02,21,07,18,-3.60
2018,02,21,07,19,-3.60
2018,02,21,07,20,-3.70
2018,02,21,07,21,-3.70
2018,02,21,07,22,-3.70
2018,02,21,07,23,-3.80
2018,02,21,07,24,-3.80
2018,02,21,07,25,-3.80
2018,02,21,07,26,-3.80
2018,02,21,07,27,-3.80
2018,02,21,07,28,-3.80
2018,02,21,07,29,-3.80
2018,02,21,07,30,-3.80
2018,02,21,07,31,-3.70
2018,02,21,07,32,-3.70
2018,02,21,07,33,-3.70
2018,02,21,07,34,-3.70
2018,02,21,07,35,-3.60
2018,02,21,07,36,-3.60
2018,02,21,07,37,-3.50
2018,02,21,07,38,-3.50
2018,02,21,07,39,-3.50
2018,02,21,07,40,-3.50
2018,02,21,07,41,-3.50
2018,02,21,07,42,-3.40
2018,02,21,07,43,-3.40
2018,02,21,07,44,-3.40
2018,02,21,07,45,-3.40
2018,02,21,07,46,-3.30
2018,02,21,07,47,-3.30
2018,02,21,07,48,-3.30
2018,02,21,07,49,-3.30
2018,02,21,07,50,-3.30
2018,02,21,07,51,-3.30
2018,02,21,07,52,-3.30
2018,02,21,07,53,-3.30
2018,02,21,07,54,-3.30
2018,02,21,07,55,-3.30
2018,02,21,07,56,-3.30
2018,02,21,07,57,-3.30
2018,02,21,07,58,-3.30
2018,02,21,07,59,-3.30
2018,02,21,08,00,-3.30
2018,02,21,08,01,-3.30
2018,02,21,08,02,-3.30
2018,02,21,08,03,-3.30
2018,02,21,08,04,-3.30
2018,02,21,08,05,-3.40
2018,02,21,08,06,-3.40
2018,02,21,08,07,-3.40
2018,02,21,08,08,-3.40
2018,02,21,08,09,-3.40
2018,02,21,08,10,-3.40
2018,02,21,08,11,-3.40
2018,02,21,08,12,-3.40
2018,02,21,08,13,-3.40
2018,02,21,08,14,-3.40
2018,02,21,08,15,-3.40
2018,02,21,08,16,-3.40
2018,02,21,08,17,-3.40
2018,02,21,08,18,-3.40
2018,02,21,08,19,-3.40
2018,02,21,08,20,-3.40
2018,02,21,08,21,-3.30
2018,02,21,08,22,-3.30
2018,02,21,08,23,-3.30
2018,02,21,08,24,-3.30
2018,02,21,08,25,-3.20
2018,02,21,08,26,-3.20
2018,02,21,08,27,-3.20
2018,02,21,08,28,-3.20
2018,02,21,08,29,-3.10
2018,02,21,08,30,-3.10
2018,02,21,08,31,-3.00
2018,02,21,08,32,-3.00
2018,02,21,08,33,-2.90
2018,02,21,08,34,-2.80
2018,02,21,08,35,-2.80
2018,02,21,08,36,-2.80
2018,02,21,08,37,-2.70
2018,02,21,08,38,-2.70
2018,02,21,08,39,-2.70
2018,02,21,08,40,-2.70
2018,02,21,08,41,-2.70
2018,02,21,08,42,-2.70
2018,02,21,08,43,-2.70
2018,02,21,08,44,-2.70
2018,02,21,08,45,-2.80
2018,02,21,08,46,-2.80
2018,02,21,08,47,-2.80
2018,02,21,08,48,-2.80
2018,02,21,08,49,-2.80
2018,02,21,08,50,-2.80
2018,02,21,08,51,-2.70
2018,02,21,08,52,-2.70
2018,02,21,08,53,-2.70
2018,02,21,08,54,-2.70
2018,02,21,08,55,-2.70
2018,02,21,08,56,-2.70
2018,02,21,08,57,-2.70
2018,02,21,08,58,-2.70
2018,02,21,08,59,-2.70
2018,02,21,09,00,-2.60
2018,02,21,09,01,-2.60
2018,02,21,09,02,-2.60
2018,02,21,09,03,-2.50
2018,02,21,09,04,-2.50
2018,02,21,09,05,-2.40
2018,02,21,09,06,-2.40
2018,02,21,09,07,-2.30
2018,02,21,09,08,-2.30
2018,02,21,09,09,-2.30
2018,02,21,09,10,-2.20
2018,02,21,09,11,-2.20
2018,02,21,09,12,-2.20
2018,02,21,09,13,-2.10
2018,02,21,09,14,-2.10
2018,02,21,09,15,-2.10
2018,02,21,09,16,-2.00
2018,02,21,09,17,-2.00
2018,02,21,09,18,-2.00
2018,02,21,09,19,-1.90
2018,02,21,09,20,-1.90
2018,02,21,09,21,-1.80
2018,02,21,09,22,-1.80
2018,02,21,09,23,-1.80
2018,02,21,09,24,-1.80
2018,02,21,09,25,-1.80
2018,02,21,09,26,-1.80
2018,02,21,09,27,-1.70
2018,02,21,09,28,-1.70
2018,02,21,09,29,-1.70
2018,02,21,09,30,-1.70
2018,02,21,09,31,-1.70
2018,02,21,09,32,-1.70
2018,02,21,09,33,-1.70
2018,02,21,09,34,-1.70
2018,02,21,09,35,-1.70
2018,02,21,09,36,-1.70
2018,02,21,09,37,-1.70
2018,02,21,09,38,-1.60
2018,02,21,09,39,-1.60
2018,02,21,09,40,-1.60
2018,02,21,09,41,-1.60
2018,02,21,09,42,-1.50
2018,02,21,09,43,-1.50
2018,02,21,09,44,-1.40
2018,02,21,09,45,-1.40
2018,02,21,09,46,-1.40
2018,02,21,09,47,-1.40
2018,02,21,09,48,-1.30
2018,02,21,09,49,-1.30
2018,02,21,09,50,-1.30
2018,02,21,09,51,-1.30
2018,02,21,09,52,-1.30
2018,02,21,09,53,-1.30
2018,02,21,09,54,-1.30
2018,02,21,09,55,-1.30
2018,02,21,09,56,-1.30
2018,02,21,09,57,-1.30
2018,02,21,09,58,-1.30
2018,02,21,09,59,-1.30
2018,02,21,10,00,-1.40
2018,02,21,10,01,-1.40
2018,02,21,10,02,-1.40
2018,02,21,10,03,-1.40
2018,02,21,10,04,-1.40
2018,02,21,10,05,-1.50
2018,02,21,10,06,-1.50
2018,02,21,10,07,-1.60
2018,02,21,10,08,-1.60
2018,02,21,10,09,-1.60
2018,02,21,10,10,-1.70
2018,02,21,10,11,-1.70
2018,02,21,10,12,-1.70
2018,02,21,10,13,-1.80
2018,02,21,10,14,-1.80
2018,02,21,10,15,-1.80
2018,02,21,10,16,-1.80
2018,02,21,10,17,-1.80
2018,02,21,10,18,-1.80
2018,02,21,10,19,-1.80
2018,02,21,10,20,-1.80
2018,02,21,10,21,-1.90
2018,02,21,10,22,-1.90
2018,02,21,10,23,-1.90
2018,02,21,10,24,-1.90
2018,02,21,10,25,-2.00
2018,02,21,10,26,-2.00
2018,02,21,10,27,-2.00
2018,02,21,10,28,-2.00
2018,02,21,10,29,-2.00
2018,02,21,10,30,-2.00
2018,02,21,10,31,-2.00
2018,02,21,10,32,-2.00
2018,02,21,10,33,-2.00
2018,02,21,10,34,-2.00
2018,02,21,10,35,-2.00
2018,02,21,10,36,-2.10
2018,02,21,10,37,-2.10
2018,02,21,10,38,-2.10
2018,02,21,10,39,-2.10
2018,02,21,10,40,-2.00
2018,02,21,10,41,-2.00
2018,02,21,10,42,-2.00
2018,02,21,10,43,-2.00
2018,02,21,10,44,-2.00
2018,02,21,10,45,-2.00
2018,02,21,10,46,-2.00
2018,02,21,10,47,-2.00
2018,02,21,10,48,-2.00
2018,02,21,10,49,-1.90
2018,02,21,10,50,-2.00
2018,02,21,10,51,-1.90
2018,02,21,10,52,-1.90
2018,02,21,10,53,-1.90
2018,02,21,10,54,-1.90
2018,02,21,10,55,-1.90
2018,02,21,10,56,-1.90
2018,02,21,10,57,-1.90
2018,02,21,10,58,-1.90
2018,02,21,10,59,-1.80
2018,02,21,11,00,-1.80
2018,02,21,11,01,-1.80
2018,02,21,11,02,-1.80
2018,02,21,11,03,-1.80
2018,02,21,11,04,-1.80
2018,02,21,11,05,-1.80
2018,02,21,11,06,-1.90
2018,02,21,11,07,-1.90
2018,02,21,11,08,-1.80
2018,02,21,11,09,-1.90
2018,02,21,11,10,-1.90
2018,02,21,11,11,-1.90
2018,02,21,11,12,-1.80
2018,02,21,11,13,-1.80
2018,02,21,11,14,-1.80
2018,02,21,11,15,-1.80
2018,02,21,11,16,-1.80
2018,02,21,11,17,-1.80
2018,02,21,11,18,-1.80
2018,02,21,11,19,-1.80
2018,02,21,11,20,-1.80
2018,02,21,11,21,-1.80
2018,02,21,11,22,-1.80
2018,02,21,11,23,-1.80
2018,02,21,11,24,-1.80
2018,02,21,11,25,-1.80
2018,02,21,11,26,-1.80
2018,02,21,11,27,-1.80
2018,02,21,11,28,-1.80
2018,02,21,11,29,-1.80
2018,02,21,11,30,-1.70
2018,02,21,11,31,-1.70
2018,02,21,11,32,-1.70
2018,02,21,11,33,-1.70
2018,02,21,11,34,-1.70
2018,02,21,11,35,-1.60
2018,02,21,11,36,-1.60
2018,02,21,11,37,-1.60
2018,02,21,11,38,-1.60
2018,02,21,11,39,-1.60
2018,02,21,11,40,-1.60
2018,02,21,11,41,-1.60
2018,02,21,11,42,-1.60
2018,02,21,11,43,-1.60
2018,02,21,11,44,-1.50
2018,02,21,11,45,-1.50
2018,02,21,11,46,-1.50
2018,02,21,11,47,-1.50
2018,02,21,11,48,-1.50
2018,02,21,11,49,-1.50
2018,02,21,11,50,-1.50
2018,02,21,11,51,-1.40
2018,02,21,11,52,-1.40
2018,02,21,11,53,-1.40
2018,02,21,11,54,-1.40
2018,02,21,11,55,-1.40
2018,02,21,11,56,-1.40
2018,02,21,11,57,-1.40
2018,02,21,11,58,-1.40
2018,02,21,11,59,-1.30
2018,02,21,12,00,-1.30
2018,02,21,12,01,-1.30
2018,02,21,12,02,-1.30
2018,02,21,12,03,-1.30
2018,02,21,12,04,-1.30
2018,02,21,12,05,-1.30
2018,02,21,12,06,-1.30
2018,02,21,12,07,-1.30
2018,02,21,12,08,-1.30
2018,02,21,12,09,-1.20
2018,02,21,12,10,-1.20
2018,02,21,12,11,-1.20
2018,02,21,12,12,-1.20
2018,02,21,12,13,-1.20
2018,02,21,12,14,-1.10
2018,02,21,12,15,-1.00
2018,02,21,12,16,-1.00
2018,02,21,12,17,-1.00
2018,02,21,12,18,-1.00
2018,02,21,12,19,-0.90
2018,02,21,12,20,-0.90
2018,02,21,12,21,-0.90
2018,02,21,12,22,-0.90
2018,02,21,12,23,-0.80
2018,02,21,12,24,-0.80
2018,02,21,12,25,-0.80
2018,02,21,12,26,-0.80
2018,02,21,12,27,-0.70
2018,02,21,12,28,-0.70
2018,02,21,12,29,-0.70
2018,02,21,12,30,-0.70
2018,02,21,12,31,-0.60
2018,02,21,12,32,-0.60
2018,02,21,12,33,-0.60
2018,02,21,12,34,-0.60
2018,02,21,12,35,-0.50
2018,02,21,12,36,-0.50
2018,02,21,12,37,-0.50
2018,02,21,12,38,-0.50
2018,02,21,12,39,-0.50
2018,02,21,12,40,-0.50
2018,02,21,12,41,-0.40
2018,02,21,12,42,-0.40
2018,02,21,12,43,-0.40
2018,02,21,12,44,-0.50
2018,02,21,12,45,-0.50
2018,02,21,12,46,-0.50
2018,02,21,12,47,-0.60
2018,02,21,12,48,-0.60
2018,02,21,12,49,-0.60
2018,02,21,12,50,-0.60
2018,02,21,12,51,-0.60
2018,02,21,12,52,-0.60
2018,02,21,12,53,-0.70
2018,02,21,12,54,-0.70
2018,02,21,12,55,-0.80
2018,02,21,12,56,-0.80
2018,02,21,12,57,-0.80
2018,02,21,12,58,-0.80
2018,02,21,12,59,-0.80
2018,02,21,13,00,-0.80
2018,02,21,13,01,-0.80
2018,02,21,13,02,-0.80
2018,02,21,13,03,-0.90
2018,02,21,13,04,-0.90
2018,02,21,13,05,-0.90
2018,02,21,13,06,-0.90
2018,02,21,13,07,-0.90
2018,02,21,13,08,-0.90
2018,02,21,13,09,-0.90
2018,02,21,13,10,-0.90
2018,02,21,13,11,-0.90
2018,02,21,13,12,-0.90
2018,02,21,13,13,-0.90
2018,02,21,13,14,-0.90
2018,02,21,13,15,-0.90
2018,02,21,13,16,-0.90
2018,02,21,13,17,-0.90
2018,02,21,13,18,-0.90
2018,02,21,13,19,-0.90
2018,02,21,13,20,-0.90
2018,02,21,13,21,-0.90
2018,02,21,13,22,-0.90
2018,02,21,13,23,-0.90
2018,02,21,13,24,-0.90
2018,02,21,13,25,-0.90
2018,02,21,13,26,-0.90
2018,02,21,13,27,-0.90
2018,02,21,13,28,-0.90
2018,02,21,13,29,-0.90
2018,02,21,13,30,-0.90
2018,02,21,13,31,-0.90
2018,02,21,13,32,-0.90
2018,02,21,13,33,-0.90
2018,02,21,13,34,-0.90
2018,02,21,13,35,-0.90
2018,02,21,13,36,-0.90
2018,02,21,13,37,-0.90
2018,02,21,13,38,-0.90
2018,02,21,13,39,-0.90
2018,02,21,13,40,-0.90
2018,02,21,13,41,-0.90
2018,02,21,13,42,-0.90
2018,02,21,13,43,-0.90
2018,02,21,13,44,-0.90
2018,02,21,13,45,-0.90
2018,02,21,13,46,-0.90
2018,02,21,13,47,-0.90
2018,02,21,13,48,-0.90
2018,02,21,13,49,-0.90
2018,02,21,13,50,-0.90
2018,02,21,13,51,-1.00
2018,02,21,13,52,-1.00
2018,02,21,13,53,-1.00
2018,02,21,13,54,-1.00
2018,02,21,13,55,-1.00
2018,02,21,13,56,-1.10
2018,02,21,13,57,-1.10
2018,02,21,13,58,-1.10
2018,02,21,13,59,-1.10
2018,02,21,14,00,-1.10
2018,02,21,14,01,-1.10
2018,02,21,14,02,-1.10
2018,02,21,14,03,-1.10
2018,02,21,14,04,-1.10
2018,02,21,14,05,-1.10
2018,02,21,14,06,-1.10
2018,02,21,14,07,-1.00
2018,02,21,14,08,-1.00
2018,02,21,14,09,-1.00
2018,02,21,14,10,-1.00
2018,02,21,14,11,-1.00
2018,02,21,14,12,-1.00
2018,02,21,14,13,-1.00
2018,02,21,14,14,-1.00
2018,02,21,14,15,-1.00
2018,02,21,14,16,-1.00
2018,02,21,14,17,-1.00
2018,02,21,14,18,-1.00
2018,02,21,14,19,-1.00
2018,02,21,14,20,-1.00
2018,02,21,14,21,-1.00
2018,02,21,14,22,-0.90
2018,02,21,14,23,-0.90
2018,02,21,14,24,-0.90
2018,02,21,14,25,-0.90
2018,02,21,14,26,-0.90
2018,02,21,14,27,-0.90
2018,02,21,14,28,-0.90
2018,02,21,14,29,-0.90
2018,02,21,14,30,-0.90
2018,02,21,14,31,-0.90
2018,02,21,14,32,-0.90
2018,02,21,14,33,-0.90
2018,02,21,14,34,-0.90
2018,02,21,14,35,-0.90
2018,02,21,14,36,-0.90
2018,02,21,14,37,-0.90
2018,02,21,14,38,-0.90
2018,02,21,14,39,-0.90
2018,02,21,14,40,-0.90
2018,02,21,14,41,-0.90
2018,02,21,14,42,-0.90
2018,02,21,14,43,-0.90
2018,02,21,14,44,-0.90
2018,02,21,14,45,-0.90
2018,02,21,14,46,-0.90
2018,02,21,14,47,-0.80
2018,02,21,14,48,-0.80
2018,02,21,14,49,-0.80
2018,02,21,14,50,-0.80
2018,02,21,14,51,-0.80
2018,02,21,14,52,-0.80
2018,02,21,14,53,-0.80
2018,02,21,14,54,-0.80
2018,02,21,14,55,-0.80
2018,02,21,14,56,-0.80
2018,02,21,14,57,-0.80
2018,02,21,14,58,-0.80
2018,02,21,14,59,-0.70
2018,02,21,15,00,-0.70
2018,02,21,15,01,-0.70
2018,02,21,15,02,-0.70
2018,02,21,15,03,-0.70
2018,02,21,15,04,-0.70
2018,02,21,15,05,-0.70
2018,02,21,15,06,-0.70
2018,02,21,15,07,-0.70
2018,02,21,15,08,-0.70
2018,02,21,15,09,-0.70
2018,02,21,15,10,-0.80
2018,02,21,15,11,-0.80
2018,02,21,15,12,-0.80
2018,02,21,15,13,-0.80
2018,02,21,15,14,-0.80
2018,02,21,15,15,-0.80
2018,02,21,15,16,-0.80
2018,02,21,15,17,-0.80
2018,02,21,15,18,-0.80
2018,02,21,15,19,-0.80
2018,02,21,15,20,-0.80
2018,02,21,15,21,-0.80
2018,02,21,15,22,-0.80
2018,02,21,15,23,-0.80
2018,02,21,15,24,-0.80
2018,02,21,15,25,-0.70
2018,02,21,15,26,-0.70
2018,02,21,15,27,-0.70
2018,02,21,15,28,-0.70
2018,02,21,15,29,-0.70
2018,02,21,15,30,-0.70
2018,02,21,15,31,-0.70
2018,02,21,15,32,-0.80
2018,02,21,15,33,-0.70
2018,02,21,15,34,-0.80
2018,02,21,15,35,-0.70
2018,02,21,15,36,-0.70
2018,02,21,15,37,-0.70
2018,02,21,15,38,-0.70
2018,02,21,15,39,-0.70
2018,02,21,15,40,-0.70
2018,02,21,15,41,-0.70
2018,02,21,15,42,-0.70
2018,02,21,15,43,-0.70
2018,02,21,15,44,-0.70
2018,02,21,15,45,-0.70
2018,02,21,15,46,-0.70
2018,02,21,15,47,-0.70
2018,02,21,15,48,-0.70
2018,02,21,15,49,-0.70
2018,02,21,15,50,-0.70
2018,02,21,15,51,-0.70
2018,02,21,15,52,-0.80
2018,02,21,15,53,-0.80
2018,02,21,15,54,-0.80
2018,02,21,15,55,-0.80
2018,02,21,15,56,-0.80
2018,02,21,15,57,-0.80
2018,02,21,15,58,-0.80
2018,02,21,15,59,-0.80
2018,02,21,16,00,-0.80
2018,02,21,16,01,-0.80
2018,02,21,16,02,-0.90
2018,02,21,16,03,-0.90
2018,02,21,16,04,-0.90
2018,02,21,16,05,-0.90
2018,02,21,16,06,-0.90
2018,02,21,16,07,-0.90
2018,02,21,16,08,-0.90
2018,02,21,16,09,-0.90
2018,02,21,16,10,-0.90
2018,02,21,16,11,-0.90
2018,02,21,16,12,-0.90
2018,02,21,16,13,-0.90
2018,02,21,16,14,-0.90
2018,02,21,16,15,-1.00
2018,02,21,16,16,-1.00
2018,02,21,16,17,-1.00
2018,02,21,16,18,-1.00
2018,02,21,16,19,-1.10
2018,02,21,16,20,-1.10
2018,02,21,16,21,-1.10
2018,02,21,16,22,-1.10
2018,02,21,16,23,-1.10
2018,02,21,16,24,-1.10
2018,02,21,16,25,-1.10
2018,02,21,16,26,-1.10
2018,02,21,16,27,-1.10
2018,02,21,16,28,-1.10
2018,02,21,16,29,-1.10
2018,02,21,16,30,-1.10
2018,02,21,16,31,-1.10
2018,02,21,16,32,-1.10
2018,02,21,16,33,-1.10
2018,02,21,16,34,-1.10
2018,02,21,16,35,-1.10
2018,02,21,16,36,-1.10
2018,02,21,16,37,-1.10
2018,02,21,16,38,-1.10
2018,02,21,16,39,-1.10
2018,02,21,16,40,-1.20
2018,02,21,16,41,-1.20
2018,02,21,16,42,-1.20
2018,02,21,16,43,-1.20
2018,02,21,16,44,-1.20
2018,02,21,16,45,-1.20
2018,02,21,16,46,-1.20
2018,02,21,16,47,-1.20
2018,02,21,16,48,-1.30
2018,02,21,16,49,-1.30
2018,02,21,16,50,-1.30
2018,02,21,16,51,-1.30
2018,02,21,16,52,-1.30
2018,02,21,16,53,-1.30
2018,02,21,16,54,-1.30
2018,02,21,16,55,-1.30
2018,02,21,16,56,-1.30
2018,02,21,16,57,-1.30
2018,02,21,16,58,-1.30
2018,02,21,16,59,-1.30
2018,02,21,17,00,-1.30
2018,02,21,17,01,-1.30
2018,02,21,17,02,-1.30
2018,02,21,17,03,-1.30
2018,02,21,17,04,-1.30
2018,02,21,17,05,-1.30
2018,02,21,17,06,-1.30
2018,02,21,17,07,-1.30
2018,02,21,17,08,-1.30
2018,02,21,17,09,-1.40
2018,02,21,17,10,-1.40
2018,02,21,17,11,-1.40
2018,02,21,17,12,-1.40
2018,02,21,17,13,-1.40
2018,02,21,17,14,-1.40
2018,02,21,17,15,-1.40
2018,02,21,17,16,-1.40
2018,02,21,17,17,-1.40
2018,02,21,17,18,-1.40
2018,02,21,17,19,-1.40